Pagina principale
METAR-TAF:

METAR-TAF

Aeroporti :

Forlì, Italia

Aeroporto di Forlì

latitudine: 44-12N, longitudine: 012-04E, altezza: 27 m

Osservazione

Il bollettino è stato emesso 14 ore e 54 minuti fa, alle 15:50 UTC
Vento 11 kt da est/sud-est
Temperature 27°C
Umidità 51%
Pressione 1002 hPa
Visibilità 10 km o più
Poco nuvoloso ad un'altezza di 4000 ft

METAR: LIPK 251550Z 11011KT 9999 FEW040 27/16 Q1002

Ora: 08:44 (06:44 UTC)


TAF: mancante

Osservazioni e previsioni meteorologiche di più di 4000 aeroporti (messaggi METAR e TAF).

Le stazioni disponibili sono rappresentate dai dischi gialli e rossi sulla carta.

Puntare il mouse per vedere il nome della stazione.

Clicca sopra per visualizzare le osservazioni e previsioni meteorologiche.

Per cambiare la mappa : fare clic sui pulsanti verdi con una croce nera per ingrandire, il pulsante verde con un trattino per diminuire, o sulla freccia verde per le mappe adiacenti.


METAR-TAF: